Home   Weather   Irving   Past weeks
Flag for USA

Past Weather in Irving, Texas, USA — Yesterday and Last 2 Weeks

Now
74 °F

Partly sunny.


Feels Like: 73 °F
Forecast: 87 / 73 °F
Wind: 13 mph from South

Location: Dallas / Fort Worth International Airport

Current Time: May 26, 2019 at 9:07:41 am

Latest Report: May 26, 2019 at 7:53 am


Visibility: 10 mi

Pressure: 30.02 "Hg

Humidity: 85%

Dew Point: 69 °F

Location of IrvingLocation

Past Weather in Irving — Graph

°F

Irving Temperature Yesterday

Maximum temperature yesterday: 89 °F (at 2:53 pm)
Minimum temperature yesterday: 72 °F (at 5:53 am)
Average temperature yesterday: 80 °F

High & Low Weather Summary for the Past Weeks

 TemperatureHumidityPressure
High89 °F (May 22, 2:53 pm)97% (May 11, 7:53 am)30.03 "Hg (May 11, 7:53 am)
Low55 °F (May 11, 8:53 am)26% (May 21, 3:53 pm)29.48 "Hg (May 21, 2:53 am)
Average75 °F68%29.83 "Hg
* Reported May 11 7:53 am — May 26 7:53 am, Irving. Weather by CustomWeather, © 2019

Note: Actual official high and low records may vary slightly from our data, if they occured in-between our weather recording intervals... More about our weather records

Advertising

Irving Weather History for the Previous 24 Hours

Scroll right to see more
 ConditionsComfort  
Time TempWeatherWind HumidityBarometerVisibility
7:53 am
Sun, May 26
74 °FPartly sunny.13 mph85%30.02 "Hg10 mi
7:12 am73 °FBroken clouds.12 mph84%30.03 "Hg10 mi
6:53 am73 °FMostly cloudy.10 mph84%30.00 "Hg10 mi
5:53 am74 °FOvercast.12 mph82%29.99 "Hg10 mi
4:53 am75 °FMostly cloudy.15 mph79%29.98 "Hg10 mi
3:53 am75 °FPassing clouds.13 mph76%29.97 "Hg10 mi
2:53 am76 °FPassing clouds.14 mph72%29.96 "Hg10 mi
1:53 am77 °FPassing clouds.13 mph69%29.96 "Hg10 mi
12:53 am78 °FPassing clouds.13 mph66%29.96 "Hg10 mi
11:53 pm
Sat, May 25
80 °FPassing clouds.10 mph62%29.97 "Hg10 mi
10:53 pm80 °FPassing clouds.12 mph62%29.94 "Hg10 mi
9:53 pm81 °FPassing clouds.10 mph60%29.93 "Hg10 mi
8:53 pm83 °FPartly cloudy.15 mph57%29.90 "Hg10 mi
7:53 pm85 °FPartly sunny.20 mph53%29.89 "Hg10 mi
6:53 pm86 °FPartly sunny.17 mph55%29.89 "Hg10 mi
5:53 pm88 °FBroken clouds.15 mph52%29.92 "Hg10 mi
4:53 pm89 °FBroken clouds.21 mph50%29.92 "Hg10 mi
3:53 pm89 °FBroken clouds.16 mph50%29.94 "Hg10 mi
2:53 pm89 °FScattered clouds.12 mph50%29.96 "Hg10 mi
1:53 pm88 °FBroken clouds.17 mph52%29.98 "Hg10 mi
12:53 pm86 °FBroken clouds.20 mph55%30.00 "Hg10 mi
11:53 am85 °FScattered clouds.15 mph57%30.01 "Hg10 mi
10:53 am83 °FBroken clouds.21 mph61%30.01 "Hg10 mi
9:53 am80 °FScattered clouds.18 mph67%30.01 "Hg10 mi
Weather by CustomWeather, © 2019

See weather overview